DECAYED
Showing default

ZHUHAI-1 03A, 44534 (Decayed)

Orbit data source: Space-Track

ZHUHAI-1 03A, 44534 was a payload satellite owned by Zhuhai Orbita (CN) in LEO that was launched on Thu, 19 Sep 2019 UTC via a CHANG ZHENG 11 launch vehicle from the Jiuquan Satellite Launch Center, China (JSC). Payload-class satellites include a variety of spacecraft equipped with specific instruments for various scientific and technological missions. These include communications satellites like Starlink; space stations such as the ISS; scientific satellites like the Hubble; Earth observation satellites from companies like Planet Labs, Umbra, and HawkEye 360; GPS; miniature CubeSats for education and research; and military/defense satellites.

Not visible in the next 10 days
Identifier
44534, 2019-060A
Orbit
Decayed
Country
Flag of CNCN / PRC
Related business
Manufacturer
Harbin
Mission
Decayed Commercial Imaging
Bus & Motor
OHS-1, Unknown motor
Mass
69 kg wet, ~69 kg dry
Launch date (UTC)
2019-09-19 (6 years ago)
Launch vehicle
CHANG ZHENG 11
Launch site
Jiuquan Satellite Launch Center, China (JSC)
Object type
Payload
Rocket body
Debris
Shape & HBR
Box, Unknown HBR
Radar Cross Section
0.280 m², Medium (>0.1 m² and < 1m²)

Expand to show TLE details & history
Last TLE update: 2 months ago

TLE from 2 months ago
0 ZHUHAI-1 03A
1 44534U 19060A   25231.72065300  .13016763  26494-5  22705-3 0  9998
2 44534  97.5086  26.2046 0011792 275.6528  84.3430 16.47101819330604
Epoch: 2025-08-19T17:17Z
TLE epoch observation values (Epoch: 2025-08-19T17:17:44.419Z)
Latitude
-0.00001°
Longitude
158.46075°
Altitude
149.486 km
Speed
7.817 km/s
True Right ascension
01h 44m 49s
True Declination
0° 00' 00"
Sunlit
Object was in full shadow at epoch
Visualization orbit readout
Latitude
Unknown
Longitude
Unknown
Altitude
Unknown
Speed
Unknown
Apparent Right ascension
Unknown
Apparent Declination
Unknown
Sunlit
N/A
Visualization observer readout
Local Sidereal Time
00:43:00
Azimuth
Unknown
Elevation
Unknown
Doppler factor
Unknown
Orbital elements
Apogee altitude
151.473 km
Perigee altitude
136.091 km
Semi-major axis
6,521.919 km
Eccentricity
0.00118
Inclination
97.5086°
RAAN
26.2046°
Arg. of periapsis
275.6528°
True anomaly
84.47749°
Mean anomaly
84.343°
Eccentric anomaly
84.41024°
Mean motion
4.12079 °/min
Orbital period
87.36 mins
BSTAR
0.00022705
Loading maneuver chart data...
Computing Atmospheric mass density...
Loading historical data...
Loading historical data...
Loading historical data...
Loading historical data...
Loading historical data...
Loading historical data...
Loading historical data...

Documentation

Showing up to 5 results
|